Flag for Madagascar Weather past 2 weeks in Toamasina, Madagascar

Now
75 °F

Passing clouds.


Feels Like: 74 °F
Forecast: 74 / 83 °F
Wind: 2 mph from North

Location: Tamatave

Current Time: Oct 26, 2014 at 5:00:45 AM

Latest Report: Oct 26, 2014 at 4:00 AM


Visibility: N/A

Pressure: 29.89 "Hg

Humidity: 94%

Dew point: 73 °F

Location of ToamasinaLocation

Historic Weather in Toamasina — Graph

°F

Toamasina temperature yesterday

Maximum temperature yesterday: 84 °F (at 11:00 AM)
Minimum temperature yesterday: 73 °F (at 3:00 AM)
Average temperature yesterday: 79 °F

Past Weeks' High & Low Weather Summary

 TemperatureHumidityPressure
High86 °F (Oct 16, 11:00 AM)100% (Oct 11, 5:00 AM)30.15 "Hg (Oct 11, 5:00 AM)
Low66 °F (Oct 14, 3:00 AM)55% (Oct 14, 10:00 AM)29.74 "Hg (Oct 15, 3:00 PM)
Average78 °F84%29.94 "Hg
* Reported Oct 11 4:00 AM — Oct 26 4:00 AM, Toamasina, Weather by CustomWeather, © 2014

Note: Actual official high and low records may vary slightly from our data, if they occured in-between our weather recording intervals... More about our weather records

Advertising

Toamasina weather history for previous 24 hours

 ConditionsComfort  
Time TempWeatherWind HumidityBarometerVisibility
4:00 AM
Oct 26
75 °FPassing clouds.2 mph94%29.89 "HgN/A
3:00 AM75 °FPassing clouds.2 mph94%29.89 "HgN/A
2:00 AM75 °FScattered showers. Partly cloudy.No wind94%29.89 "HgN/A
1:00 AM77 °FScattered showers. Partly cloudy.No wind94%29.89 "HgN/A
12:00 AM77 °FScattered showers. Partly cloudy.5 mph94%29.92 "HgN/A
11:00 PM
Oct 25
77 °FScattered showers. Partly cloudy.7 mph94%29.92 "HgN/A
10:00 PM77 °FScattered showers. Partly cloudy.7 mph94%29.92 "Hg6 mi
9:00 PM77 °FThunderstorms. Partly cloudy.7 mph94%29.95 "Hg4 mi
8:00 PM77 °FThunderstorms. Partly cloudy.7 mph94%29.95 "Hg4 mi
7:00 PM79 °FThunderstorms. Partly cloudy.7 mph89%29.92 "HgN/A
6:00 PM79 °FScattered showers. Partly cloudy.12 mph89%29.86 "HgN/A
5:00 PM81 °FScattered showers. Scattered clouds.12 mph84%29.86 "HgN/A
4:00 PM82 °FScattered showers. Scattered clouds.12 mph79%29.83 "HgN/A
3:00 PM82 °FScattered clouds.12 mph79%29.83 "HgN/A
2:00 PM82 °FScattered clouds.12 mph79%29.86 "HgN/A
1:00 PM84 °FScattered clouds.14 mph74%29.86 "HgN/A
12:00 PM84 °FPassing clouds.14 mph84%29.89 "HgN/A
11:00 AM84 °FPassing clouds.12 mph79%29.89 "HgN/A
10:00 AM82 °FScattered clouds.9 mph84%29.95 "HgN/A
9:00 AM82 °FScattered clouds.7 mph79%29.95 "HgN/A
8:00 AM81 °FBroken clouds.7 mph79%29.95 "HgN/A
7:00 AM77 °FPartly sunny.2 mph89%29.95 "HgN/A
6:00 AM75 °FBroken clouds.2 mph94%29.92 "HgN/A
5:00 AM73 °FPassing clouds.5 mph94%29.89 "HgN/A
Weather by CustomWeather, © 2014

See weather overviewHow to use our weather pages